Home > Time Zones > World Clock > Weather > Japan > Naha > Past weeks

Flag for Japan Weather past 2 weeks in Naha, Okinawa, Japan

Now
82 °F

Passing clouds.


Feels Like: 91 °F
Forecast: 83 / 89 °F
Wind: 7 mph from Southwest

Location: Naha Airport

Current Time: Jul 29, 2015 at 1:12:26 AM

Latest Report: Jul 29, 2015 at 12:30 AM


Visibility: N/A

Pressure: 29.92 "Hg

Humidity: 84%

Dew point: 77 °F

Location of NahaLocation

Historic Weather in Naha — Graph

°F

Naha temperature yesterday

Maximum temperature yesterday: 88 °F (at 10:30 AM)
Minimum temperature yesterday: 82 °F (at 12:00 AM)
Average temperature yesterday: 85 °F

Past Weeks' High & Low Weather Summary

 TemperatureHumidityPressure
High90 °F (Jul 17, 1:30 PM)94% (Jul 19, 4:00 AM)29.95 "Hg (Jul 19, 4:00 AM)
Low77 °F (Jul 20, 3:00 AM)55% (Jul 23, 11:30 AM)29.53 "Hg (Jul 15, 2:00 PM)
Average84 °F80%29.76 "Hg
* Reported Midnight between Jul 13 and Jul 14 — Midnight between Jul 28 and Jul 29, Naha, Weather by CustomWeather, © 2015

Note: Actual official high and low records may vary slightly from our data, if they occured in-between our weather recording intervals... More about our weather records

Advertising

Naha weather history for previous 24 hours

 ConditionsComfort  
Time TempWeatherWind HumidityBarometerVisibility
12:00 AM
Wed, Jul 29
82 °FPassing clouds.6 mph84%29.92 "HgN/A
11:30 PM
Tue, Jul 28
84 °FPassing clouds.6 mph79%29.92 "HgN/A
11:00 PM84 °FPassing clouds.5 mph84%29.92 "HgN/A
10:30 PM84 °FPassing clouds.6 mph79%29.92 "HgN/A
10:00 PM84 °FPassing clouds.6 mph79%29.92 "HgN/A
9:30 PM84 °FPassing clouds.7 mph79%29.92 "HgN/A
9:00 PM84 °FPassing clouds.7 mph79%29.89 "HgN/A
8:30 PM84 °FPassing clouds.8 mph79%29.89 "HgN/A
8:00 PM84 °FPassing clouds.9 mph79%29.89 "HgN/A
7:30 PM84 °FPassing clouds.8 mph79%29.89 "HgN/A
7:00 PM84 °FPassing clouds.8 mph79%29.89 "HgN/A
6:30 PM86 °FPassing clouds.8 mph75%29.86 "HgN/A
6:00 PM86 °FPassing clouds.9 mph79%29.86 "HgN/A
5:30 PM86 °FPassing clouds.10 mph79%29.89 "HgN/A
5:00 PM88 °FPassing clouds.10 mph75%29.86 "HgN/A
4:30 PM88 °FPassing clouds.10 mph75%29.89 "HgN/A
4:00 PM88 °FPassing clouds.12 mph75%29.89 "HgN/A
3:30 PM88 °FPassing clouds.12 mph70%29.89 "HgN/A
3:00 PM88 °FPassing clouds.10 mph75%29.89 "HgN/A
2:30 PM88 °FPassing clouds.12 mph75%29.89 "HgN/A
2:00 PM88 °FPassing clouds.10 mph75%29.89 "HgN/A
1:30 PM88 °FPassing clouds.12 mph75%29.92 "HgN/A
1:00 PM88 °FPassing clouds.12 mph75%29.92 "HgN/A
12:30 PM88 °FPassing clouds.10 mph75%29.92 "HgN/A
12:00 PM88 °FScattered clouds.10 mph79%29.92 "HgN/A
11:30 AM86 °FScattered clouds.10 mph79%29.92 "HgN/A
11:00 AM88 °FScattered clouds.9 mph79%29.92 "HgN/A
10:30 AM88 °FScattered clouds.9 mph75%29.92 "HgN/A
10:00 AM86 °FScattered clouds.10 mph79%29.92 "HgN/A
9:30 AM86 °FScattered clouds.12 mph79%29.92 "HgN/A
9:00 AM86 °FScattered clouds.10 mph79%29.92 "HgN/A
8:30 AM84 °FPartly sunny.9 mph84%29.92 "HgN/A
8:00 AM84 °FPartly sunny.10 mph84%29.92 "HgN/A
7:30 AM84 °FPartly sunny.10 mph84%29.92 "HgN/A
6:30 AM82 °FBroken clouds.8 mph89%29.92 "HgN/A
6:00 AM82 °FSprinkles. Broken clouds.8 mph89%29.89 "HgN/A
5:30 AM82 °FPassing clouds.7 mph89%29.89 "HgN/A
5:00 AM82 °FPassing clouds.7 mph84%29.89 "HgN/A
4:30 AM82 °FPassing clouds.8 mph84%29.89 "HgN/A
4:00 AM82 °FPassing clouds.8 mph89%29.89 "HgN/A
3:30 AM82 °FPassing clouds.9 mph89%29.89 "HgN/A
3:00 AM82 °FPassing clouds.9 mph84%29.89 "HgN/A
2:30 AM82 °FPassing clouds.10 mph89%29.89 "HgN/A
2:00 AM82 °FPassing clouds.10 mph89%29.89 "HgN/A
1:30 AM82 °FPassing clouds.10 mph89%29.89 "HgN/A
1:00 AM82 °FPassing clouds.9 mph89%29.89 "HgN/A
Weather by CustomWeather, © 2015

See weather overviewHow to use our weather pages